EXS1065 EGCC-LICJ

Flight info

Callsign EXS1065
Flight time 2h 50m
Altitude 37000
Route N0438F370 LISTO P18 TELBA L151 MID UL612 RESMI/N0450F390 UL612 OGULO DCT OKASI DCT OKEKO DCT MOU DCT MADIV DCT MOKIP DCT TUFTA DCT KOGAS DCT MEDAM DCT NITAM DCT MOGBO DCT KONER DCT RUVIP DCT GIANO
Aircraft B738/M-SDFGIJ1RWYZ/LB1

Departure

Time 2026-05-05 16:35
Airport Manchester Airport (EGCC)

Arrival

Time 2026-05-05 19:25
Airport Falcone–Borsellino Airport (LICJ)
Time Latitude Longitude Altitude Speed Heading
2026-05-05 15:16 53.36898 -2.28530 254 ft 0 kts 315°
2026-05-05 16:16 53.36873 -2.28489 254 ft 4 kts 315°
2026-05-05 16:16 53.36840 -2.28433 254 ft 2 kts 315°
2026-05-05 16:17 53.36837 -2.28491 254 ft 3 kts 224°
2026-05-05 16:17 53.36819 -2.28521 254 ft 4 kts 224°
2026-05-05 16:18 53.36815 -2.28527 254 ft 0 kts 224°
2026-05-05 16:21 53.36804 -2.28545 254 ft 5 kts 225°
2026-05-05 16:22 53.36659 -2.28761 254 ft 10 kts 199°
2026-05-05 16:22 53.36545 -2.28701 254 ft 10 kts 134°
2026-05-05 16:23 53.36469 -2.28570 254 ft 5 kts 134°
2026-05-05 16:23 53.36464 -2.28563 254 ft 0 kts 134°
2026-05-05 16:24 53.36464 -2.28562 254 ft 1 kts 134°
2026-05-05 16:24 53.36448 -2.28536 254 ft 7 kts 134°
2026-05-05 16:24 53.36362 -2.28314 254 ft 13 kts 135°
2026-05-05 16:25 53.36300 -2.28210 254 ft 12 kts 135°
2026-05-05 16:25 53.36180 -2.28008 254 ft 13 kts 136°
2026-05-05 16:25 53.36109 -2.27912 254 ft 13 kts 142°
2026-05-05 16:26 53.35978 -2.27749 254 ft 15 kts 153°
2026-05-05 16:26 53.35759 -2.27747 247 ft 18 kts 186°
2026-05-05 16:27 53.35626 -2.27769 240 ft 18 kts 186°
2026-05-05 16:27 53.35521 -2.27821 237 ft 16 kts 218°
2026-05-05 16:27 53.35440 -2.27948 237 ft 17 kts 224°
2026-05-05 16:27 53.35354 -2.28086 237 ft 18 kts 224°
2026-05-05 16:28 53.35259 -2.28248 231 ft 21 kts 229°
2026-05-05 16:28 53.35161 -2.28448 226 ft 24 kts 231°
2026-05-05 16:28 53.35061 -2.28656 228 ft 21 kts 230°
2026-05-05 16:28 53.34964 -2.28829 225 ft 20 kts 226°
2026-05-05 16:29 53.34868 -2.29000 219 ft 21 kts 227°
2026-05-05 16:29 53.34779 -2.29170 214 ft 17 kts 231°
2026-05-05 16:29 53.34712 -2.29298 214 ft 11 kts 220°
2026-05-05 16:29 53.34681 -2.29327 212 ft 0 kts 198°
2026-05-05 16:30 53.34655 -2.29338 210 ft 7 kts 189°
2026-05-05 16:31 53.34592 -2.29333 214 ft 10 kts 166°
2026-05-05 16:31 53.34539 -2.29273 212 ft 8 kts 126°
2026-05-05 16:31 53.34546 -2.29211 215 ft 5 kts 53°
2026-05-05 16:31 53.34551 -2.29200 217 ft 0 kts 51°
2026-05-05 16:34 53.34589 -2.29121 215 ft 32 kts 51°
2026-05-05 16:34 53.34881 -2.28514 229 ft 100 kts 51°
2026-05-05 16:35 53.35449 -2.27339 247 ft 157 kts 50°
2026-05-05 16:35 53.36213 -2.25813 659 ft 175 kts 50°
2026-05-05 16:35 53.36972 -2.24229 1529 ft 172 kts 49°
2026-05-05 16:35 53.37585 -2.22523 2262 ft 181 kts 76°
2026-05-05 16:36 53.37392 -2.20301 2570 ft 210 kts 116°
2026-05-05 16:36 53.36352 -2.18507 2989 ft 222 kts 146°
2026-05-05 16:36 53.35005 -2.17195 3595 ft 228 kts 158°
2026-05-05 16:36 53.33373 -2.16846 3898 ft 251 kts 181°
2026-05-05 16:37 53.31558 -2.17083 4395 ft 266 kts 185°
2026-05-05 16:37 53.29704 -2.17409 5174 ft 270 kts 185°
2026-05-05 16:37 53.27814 -2.17739 5914 ft 276 kts 185°
2026-05-05 16:37 53.25907 -2.18065 6756 ft 275 kts 185°
2026-05-05 16:38 53.23971 -2.18381 7379 ft 283 kts 185°
2026-05-05 16:38 53.22032 -2.18690 8106 ft 286 kts 186°
2026-05-05 16:38 53.20019 -2.19008 8892 ft 288 kts 186°
2026-05-05 16:38 53.18038 -2.19319 9643 ft 291 kts 187°
2026-05-05 16:39 53.16011 -2.19635 10331 ft 296 kts 187°
2026-05-05 16:39 53.13881 -2.19968 10534 ft 319 kts 187°
2026-05-05 16:39 53.11601 -2.20325 10791 ft 338 kts 187°
2026-05-05 16:39 53.09232 -2.20693 11348 ft 345 kts 187°
2026-05-05 16:40 53.06836 -2.21064 12091 ft 347 kts 187°
2026-05-05 16:40 53.04425 -2.21438 12863 ft 349 kts 187°
2026-05-05 16:40 53.01995 -2.21815 13615 ft 352 kts 187°
2026-05-05 16:40 52.99543 -2.22196 14316 ft 355 kts 187°
2026-05-05 16:41 52.97071 -2.22583 15013 ft 358 kts 187°
2026-05-05 16:41 52.94584 -2.22974 15765 ft 360 kts 187°
2026-05-05 16:41 52.92082 -2.23366 16490 ft 363 kts 187°
2026-05-05 16:41 52.89559 -2.23761 17191 ft 366 kts 187°
2026-05-05 16:42 52.87009 -2.24159 17895 ft 369 kts 188°
2026-05-05 16:42 52.84470 -2.24780 18548 ft 370 kts 194°
2026-05-05 16:42 52.81983 -2.25749 19158 ft 372 kts 196°
2026-05-05 16:42 52.79464 -2.26790 19785 ft 374 kts 196°
2026-05-05 16:43 52.76900 -2.27836 20405 ft 376 kts 196°
2026-05-05 16:43 52.74381 -2.28831 21009 ft 379 kts 195°
2026-05-05 16:43 52.71807 -2.29827 21574 ft 381 kts 195°
2026-05-05 16:43 52.69202 -2.30760 22150 ft 386 kts 189°
2026-05-05 16:44 52.66500 -2.30657 22685 ft 394 kts 172°
2026-05-05 16:44 52.63882 -2.29241 23267 ft 402 kts 155°
2026-05-05 16:44 52.61503 -2.26751 23792 ft 407 kts 148°
2026-05-05 16:44 52.59158 -2.24098 24236 ft 411 kts 148°
2026-05-05 16:45 52.56793 -2.21424 24665 ft 414 kts 148°
2026-05-05 16:45 52.54407 -2.18758 25107 ft 416 kts 148°
2026-05-05 16:45 52.51995 -2.16092 25552 ft 418 kts 148°
2026-05-05 16:45 52.49572 -2.13435 25973 ft 420 kts 148°
2026-05-05 16:46 52.47133 -2.10772 26417 ft 422 kts 149°
2026-05-05 16:46 52.44679 -2.08097 26842 ft 424 kts 149°
2026-05-05 16:46 52.42214 -2.05415 27238 ft 427 kts 149°
2026-05-05 16:46 52.39732 -2.02716 27631 ft 429 kts 149°
2026-05-05 16:47 52.37242 -2.00009 28015 ft 431 kts 149°
2026-05-05 16:47 52.34737 -1.97289 28378 ft 433 kts 149°
2026-05-05 16:47 52.32216 -1.94559 28799 ft 435 kts 149°
2026-05-05 16:47 52.29695 -1.91831 29178 ft 436 kts 149°
2026-05-05 16:48 52.27158 -1.89090 29544 ft 438 kts 149°
2026-05-05 16:48 52.24603 -1.86343 29845 ft 441 kts 150°
2026-05-05 16:48 52.22026 -1.83590 30135 ft 444 kts 150°
2026-05-05 16:48 52.19472 -1.80868 30410 ft 445 kts 150°
2026-05-05 16:49 52.16874 -1.78099 30731 ft 446 kts 149°
2026-05-05 16:49 52.14281 -1.75335 31145 ft 444 kts 149°
2026-05-05 16:49 52.11697 -1.72586 31575 ft 442 kts 149°
2026-05-05 16:49 52.09127 -1.69858 31957 ft 441 kts 149°
2026-05-05 16:50 52.06552 -1.67137 32297 ft 441 kts 149°
2026-05-05 16:50 52.03980 -1.64439 32655 ft 440 kts 149°
2026-05-05 16:50 52.01409 -1.61746 33063 ft 437 kts 149°
2026-05-05 16:50 51.98874 -1.59062 33561 ft 433 kts 149°
2026-05-05 16:51 51.96359 -1.56384 33960 ft 432 kts 149°
2026-05-05 16:51 51.93848 -1.53713 34220 ft 432 kts 149°
2026-05-05 16:51 51.91330 -1.51040 34407 ft 434 kts 149°
2026-05-05 16:51 51.88829 -1.48394 34614 ft 435 kts 149°
2026-05-05 16:52 51.86292 -1.45719 34864 ft 435 kts 149°
2026-05-05 16:52 51.83753 -1.43058 35161 ft 434 kts 149°
2026-05-05 16:52 51.81222 -1.40409 35410 ft 434 kts 149°
2026-05-05 16:52 51.78684 -1.37757 35572 ft 436 kts 149°
2026-05-05 16:53 51.76138 -1.35099 35802 ft 436 kts 148°
2026-05-05 16:53 51.73587 -1.32432 36042 ft 436 kts 148°
2026-05-05 16:53 51.71041 -1.29771 36245 ft 437 kts 148°
2026-05-05 16:53 51.68492 -1.27108 36439 ft 438 kts 148°
2026-05-05 16:54 51.65932 -1.24437 36645 ft 438 kts 148°
2026-05-05 16:54 51.63375 -1.21773 36865 ft 438 kts 148°
2026-05-05 16:54 51.60810 -1.19105 36967 ft 441 kts 148°
2026-05-05 16:54 51.58226 -1.16421 36958 ft 443 kts 148°
2026-05-05 16:55 51.53109 -1.11114 36960 ft 438 kts 148°
2026-05-05 16:55 51.48006 -1.05837 36965 ft 435 kts 148°
2026-05-05 16:56 51.42924 -1.00612 36957 ft 433 kts 149°
2026-05-05 16:56 51.37845 -0.95416 36939 ft 432 kts 149°
2026-05-05 16:57 51.32776 -0.90240 36942 ft 432 kts 148°
2026-05-05 16:57 51.27706 -0.85074 36941 ft 433 kts 148°
2026-05-05 16:58 51.22623 -0.79909 36943 ft 434 kts 148°
2026-05-05 16:58 51.17527 -0.74742 36937 ft 435 kts 148°
2026-05-05 16:59 51.12412 -0.69571 36933 ft 436 kts 148°
2026-05-05 16:59 51.07327 -0.64442 36930 ft 437 kts 149°
2026-05-05 17:00 51.02230 -0.59207 36927 ft 437 kts 147°
2026-05-05 17:00 50.97182 -0.53790 36938 ft 438 kts 147°
2026-05-05 17:01 50.92122 -0.48366 36934 ft 439 kts 147°
2026-05-05 17:01 50.87056 -0.42982 36941 ft 439 kts 147°
2026-05-05 17:02 50.81976 -0.37608 36935 ft 439 kts 147°
2026-05-05 17:02 50.76905 -0.32257 36936 ft 438 kts 147°
2026-05-05 17:03 50.71874 -0.26960 36935 ft 437 kts 147°
2026-05-05 17:03 50.66806 -0.21643 36930 ft 437 kts 147°
2026-05-05 17:04 50.61751 -0.16351 36920 ft 436 kts 147°
2026-05-05 17:04 50.56700 -0.11073 36918 ft 436 kts 147°
2026-05-05 17:05 50.51651 -0.05810 36924 ft 435 kts 147°
2026-05-05 17:05 50.46602 -0.00561 36920 ft 435 kts 147°
2026-05-05 17:06 50.42409 0.03793 36916 ft 435 kts 147°
2026-05-05 17:06 50.37368 0.09030 36916 ft 434 kts 147°
2026-05-05 17:07 50.32332 0.14256 36913 ft 434 kts 147°
2026-05-05 17:07 50.27295 0.19476 36908 ft 434 kts 147°
2026-05-05 17:08 50.22263 0.24679 36911 ft 433 kts 147°
2026-05-05 17:08 50.17233 0.29857 36914 ft 432 kts 147°
2026-05-05 17:09 50.12210 0.35007 36908 ft 432 kts 147°
2026-05-05 17:09 50.07193 0.40144 36913 ft 431 kts 147°
2026-05-05 17:10 50.02219 0.45218 36904 ft 429 kts 147°
2026-05-05 17:10 49.97238 0.50291 36901 ft 427 kts 148°
2026-05-05 17:11 49.92279 0.55331 36899 ft 424 kts 148°
2026-05-05 17:11 49.87344 0.60334 36892 ft 422 kts 148°
2026-05-05 17:12 49.82632 0.65730 36893 ft 422 kts 141°
2026-05-05 17:12 49.78056 0.71549 36896 ft 429 kts 141°
2026-05-05 17:13 49.73424 0.77420 36895 ft 437 kts 141°
2026-05-05 17:13 49.68690 0.83367 36869 ft 436 kts 141°
2026-05-05 17:14 49.64046 0.89169 36870 ft 424 kts 142°
2026-05-05 17:14 49.59457 0.94888 36862 ft 423 kts 142°
2026-05-05 17:15 49.54873 1.00585 36862 ft 423 kts 142°
2026-05-05 17:15 49.50282 1.06279 36863 ft 424 kts 141°
2026-05-05 17:16 49.45704 1.11945 36865 ft 426 kts 141°
2026-05-05 17:16 49.41064 1.17671 36866 ft 430 kts 141°
2026-05-05 17:17 49.36383 1.23431 36851 ft 432 kts 141°
2026-05-05 17:17 49.31689 1.29195 36859 ft 433 kts 142°
2026-05-05 17:18 49.26987 1.34958 36848 ft 433 kts 142°
2026-05-05 17:18 49.22271 1.40723 36850 ft 433 kts 142°
2026-05-05 17:19 49.17560 1.46470 36853 ft 433 kts 142°
2026-05-05 17:19 49.12845 1.52206 36846 ft 433 kts 142°
2026-05-05 17:20 49.08168 1.57881 36843 ft 432 kts 142°
2026-05-05 17:20 49.03466 1.63572 36835 ft 431 kts 142°
2026-05-05 17:21 48.98774 1.69239 36837 ft 430 kts 142°
2026-05-05 17:22 48.91744 1.77701 36826 ft 429 kts 142°
2026-05-05 17:22 48.87056 1.83328 36835 ft 429 kts 142°
2026-05-05 17:23 48.82366 1.88942 36829 ft 430 kts 142°
2026-05-05 17:23 48.77699 1.94516 36830 ft 430 kts 142°
2026-05-05 17:24 48.72950 2.00175 36884 ft 434 kts 142°
2026-05-05 17:24 48.70564 2.03012 37004 ft 437 kts 142°
2026-05-05 17:24 48.68203 2.05816 37213 ft 437 kts 142°
2026-05-05 17:24 48.65814 2.08651 37460 ft 436 kts 142°
2026-05-05 17:25 48.63426 2.11482 37656 ft 437 kts 142°
2026-05-05 17:25 48.58610 2.17179 37889 ft 441 kts 143°
2026-05-05 17:25 48.56226 2.20088 38106 ft 441 kts 139°
2026-05-05 17:26 48.54019 2.23291 38331 ft 441 kts 136°
2026-05-05 17:26 48.51867 2.26599 38461 ft 442 kts 135°
2026-05-05 17:26 48.49723 2.29936 38569 ft 443 kts 135°
2026-05-05 17:26 48.47573 2.33265 38711 ft 443 kts 136°
2026-05-05 17:27 48.45416 2.36569 38811 ft 443 kts 136°
2026-05-05 17:27 48.41068 2.43147 38808 ft 446 kts 136°
2026-05-05 17:28 48.36691 2.49727 38821 ft 444 kts 136°
2026-05-05 17:28 48.32324 2.56278 38821 ft 443 kts 136°
2026-05-05 17:29 48.27784 2.62462 38807 ft 439 kts 147°
2026-05-05 17:29 48.22392 2.66630 38825 ft 435 kts 158°
2026-05-05 17:30 48.16949 2.70642 38829 ft 437 kts 152°
2026-05-05 17:30 48.11637 2.75106 38822 ft 438 kts 153°
2026-05-05 17:31 48.06217 2.79292 38820 ft 439 kts 158°
2026-05-05 17:31 48.00628 2.82834 38830 ft 440 kts 159°
2026-05-05 17:32 47.94960 2.86333 38825 ft 441 kts 159°
2026-05-05 17:32 47.89293 2.89887 38825 ft 443 kts 159°
2026-05-05 17:33 47.83616 2.93477 38831 ft 444 kts 159°
2026-05-05 17:33 47.77926 2.97075 38827 ft 444 kts 159°
2026-05-05 17:34 47.72244 3.00657 38827 ft 443 kts 159°
2026-05-05 17:34 47.66569 3.04225 38835 ft 443 kts 159°
2026-05-05 17:35 47.60930 3.07762 38838 ft 442 kts 159°
2026-05-05 17:35 47.55265 3.11308 38842 ft 441 kts 159°
2026-05-05 17:36 47.49608 3.14836 38845 ft 441 kts 159°
2026-05-05 17:36 47.43960 3.18347 38840 ft 440 kts 159°
2026-05-05 17:37 47.38316 3.21848 38848 ft 440 kts 159°
2026-05-05 17:37 47.32676 3.25341 38840 ft 439 kts 159°
2026-05-05 17:38 47.27078 3.28800 38850 ft 439 kts 159°
2026-05-05 17:38 47.21447 3.32270 38839 ft 439 kts 160°
2026-05-05 17:39 47.15824 3.35729 38850 ft 438 kts 160°
2026-05-05 17:39 47.10201 3.39179 38859 ft 438 kts 160°
2026-05-05 17:40 47.04577 3.42622 38850 ft 438 kts 160°
2026-05-05 17:40 46.98957 3.46054 38856 ft 438 kts 160°
2026-05-05 17:41 46.93330 3.49484 38856 ft 438 kts 160°
2026-05-05 17:41 46.87704 3.52905 38848 ft 438 kts 160°
2026-05-05 17:42 46.82077 3.56320 38856 ft 438 kts 160°
2026-05-05 17:42 46.76437 3.59734 38856 ft 439 kts 160°
2026-05-05 17:42 46.73720 3.61638 38831 ft 443 kts 147°
2026-05-05 17:43 46.71455 3.64686 38874 ft 447 kts 130°
2026-05-05 17:43 46.69805 3.68549 38841 ft 453 kts 114°
2026-05-05 17:43 46.68878 3.72948 38885 ft 456 kts 106°
2026-05-05 17:44 46.67456 3.81976 38865 ft 458 kts 105°
2026-05-05 17:44 46.65951 3.91010 38855 ft 460 kts 107°
2026-05-05 17:45 46.64379 4.00050 38858 ft 461 kts 107°
2026-05-05 17:45 46.62805 4.09116 38847 ft 463 kts 107°
2026-05-05 17:46 46.61225 4.18191 38855 ft 464 kts 107°
2026-05-05 17:46 46.59635 4.27281 38858 ft 464 kts 107°
2026-05-05 17:47 46.58036 4.36377 38857 ft 464 kts 107°
2026-05-05 17:47 46.56440 4.45410 38852 ft 464 kts 107°
2026-05-05 17:48 46.54829 4.54476 38853 ft 463 kts 107°
2026-05-05 17:48 46.53213 4.63524 38859 ft 462 kts 107°
2026-05-05 17:49 46.51596 4.72539 38866 ft 461 kts 107°
2026-05-05 17:49 46.49973 4.81540 38866 ft 460 kts 107°
2026-05-05 17:50 46.48345 4.90522 38860 ft 460 kts 108°
2026-05-05 17:50 46.46712 4.99493 38869 ft 459 kts 108°
2026-05-05 17:51 46.45073 5.08455 38867 ft 460 kts 108°
2026-05-05 17:51 46.43417 5.17407 38880 ft 460 kts 108°
2026-05-05 17:52 46.41756 5.26316 38870 ft 461 kts 108°
2026-05-05 17:52 46.40077 5.35298 38885 ft 462 kts 108°
2026-05-05 17:53 46.37630 5.43796 38887 ft 455 kts 125°
2026-05-05 17:53 46.33747 5.50933 38900 ft 451 kts 134°
2026-05-05 17:54 46.29611 5.57776 38894 ft 452 kts 134°
2026-05-05 17:54 46.25486 5.64655 38896 ft 453 kts 134°
2026-05-05 17:55 46.21380 5.71560 38906 ft 453 kts 134°
2026-05-05 17:55 46.17271 5.78476 38921 ft 454 kts 135°
2026-05-05 17:56 46.13147 5.85401 38924 ft 455 kts 135°
2026-05-05 17:56 46.09003 5.92337 38924 ft 458 kts 135°
2026-05-05 17:57 46.04844 5.99282 38892 ft 457 kts 135°
2026-05-05 17:57 46.00684 6.06213 38869 ft 456 kts 135°
2026-05-05 17:58 45.96566 6.13057 38877 ft 454 kts 136°
2026-05-05 17:58 45.92444 6.19889 38888 ft 451 kts 136°
2026-05-05 17:59 45.88332 6.26687 38883 ft 449 kts 136°
2026-05-05 17:59 45.84906 6.32340 38873 ft 447 kts 136°
2026-05-05 18:00 45.80824 6.38916 38885 ft 441 kts 141°
2026-05-05 18:00 45.76006 6.44180 38910 ft 435 kts 150°
2026-05-05 18:01 45.71027 6.49123 38908 ft 436 kts 150°
2026-05-05 18:01 45.66065 6.54098 38907 ft 434 kts 150°
2026-05-05 18:02 45.61145 6.59075 38910 ft 433 kts 150°
2026-05-05 18:02 45.56220 6.64058 38870 ft 434 kts 150°
2026-05-05 18:03 45.51283 6.69042 38902 ft 435 kts 150°
2026-05-05 18:03 45.46327 6.74034 38907 ft 437 kts 150°
2026-05-05 18:04 45.41375 6.79014 38892 ft 432 kts 150°
2026-05-05 18:04 45.36477 6.83924 38905 ft 437 kts 150°
2026-05-05 18:05 45.31480 6.88923 38944 ft 442 kts 150°
2026-05-05 18:05 45.26425 6.94011 38929 ft 448 kts 147°
2026-05-05 18:06 45.21852 7.00098 38949 ft 449 kts 140°
2026-05-05 18:06 45.17491 7.06298 38953 ft 440 kts 141°
2026-05-05 18:07 45.13115 7.12350 38956 ft 438 kts 141°
2026-05-05 18:07 45.09007 7.18750 38971 ft 444 kts 130°
2026-05-05 18:08 45.05508 7.25969 38982 ft 451 kts 130°
2026-05-05 18:08 45.01923 7.33319 38976 ft 456 kts 130°
2026-05-05 18:09 44.98247 7.40671 38971 ft 459 kts 133°
2026-05-05 18:09 44.94042 7.47328 38947 ft 451 kts 139°
2026-05-05 18:10 44.89712 7.53604 38952 ft 444 kts 140°
2026-05-05 18:10 44.85416 7.59853 38965 ft 443 kts 139°
2026-05-05 18:11 44.81154 7.66123 38954 ft 443 kts 139°
2026-05-05 18:11 44.76902 7.72402 38968 ft 444 kts 139°
2026-05-05 18:12 44.72635 7.78696 38954 ft 445 kts 140°
2026-05-05 18:12 44.68347 7.85007 38968 ft 448 kts 140°
2026-05-05 18:13 44.64051 7.91313 38968 ft 451 kts 140°
2026-05-05 18:13 44.59700 7.97685 38938 ft 454 kts 140°
2026-05-05 18:14 44.55319 8.04087 38961 ft 456 kts 140°
2026-05-05 18:14 44.50912 8.10511 38955 ft 458 kts 140°
2026-05-05 18:15 44.46486 8.16950 38944 ft 459 kts 140°
2026-05-05 18:15 44.42056 8.23380 38952 ft 458 kts 140°
2026-05-05 18:16 44.37638 8.29778 38953 ft 457 kts 140°
2026-05-05 18:16 44.33223 8.36155 38934 ft 456 kts 140°
2026-05-05 18:17 44.28821 8.42498 38944 ft 453 kts 140°
2026-05-05 18:17 44.24434 8.48805 38951 ft 452 kts 140°
2026-05-05 18:18 44.20052 8.55091 38952 ft 452 kts 140°
2026-05-05 18:18 44.15696 8.61322 38948 ft 452 kts 140°
2026-05-05 18:19 44.11309 8.67586 38949 ft 452 kts 140°
2026-05-05 18:19 44.06914 8.73848 38923 ft 452 kts 141°
2026-05-05 18:20 44.02518 8.80097 38937 ft 453 kts 141°
2026-05-05 18:20 43.98104 8.86356 38949 ft 454 kts 141°
2026-05-05 18:21 43.93670 8.92630 38949 ft 456 kts 141°
2026-05-05 18:21 43.89212 8.98923 38949 ft 457 kts 141°
2026-05-05 18:22 43.84743 9.05220 38942 ft 459 kts 141°
2026-05-05 18:22 43.80262 9.11518 38934 ft 459 kts 141°
2026-05-05 18:23 43.75769 9.17819 38952 ft 460 kts 141°
2026-05-05 18:23 43.71270 9.24116 38957 ft 461 kts 142°
2026-05-05 18:24 43.66786 9.30376 38957 ft 461 kts 142°
2026-05-05 18:24 43.62267 9.36671 38948 ft 461 kts 142°
2026-05-05 18:25 43.57757 9.42941 38961 ft 460 kts 142°
2026-05-05 18:25 43.53247 9.49196 38940 ft 459 kts 142°
2026-05-05 18:26 43.48377 9.54631 38952 ft 442 kts 159°
2026-05-05 18:26 43.42935 9.58410 38959 ft 438 kts 161°
2026-05-05 18:27 43.37472 9.62126 38959 ft 438 kts 161°
2026-05-05 18:27 43.32019 9.65874 38966 ft 438 kts 161°
2026-05-05 18:28 43.23835 9.71539 38969 ft 440 kts 161°
2026-05-05 18:28 43.18401 9.75299 38956 ft 440 kts 161°
2026-05-05 18:29 43.12920 9.79085 38967 ft 441 kts 161°
2026-05-05 18:29 43.07431 9.82867 38965 ft 442 kts 161°
2026-05-05 18:30 43.01935 9.86646 38961 ft 442 kts 161°
2026-05-05 18:30 42.96429 9.90424 38960 ft 443 kts 161°
2026-05-05 18:31 42.90911 9.94202 38966 ft 444 kts 161°
2026-05-05 18:31 42.85386 9.97978 38965 ft 444 kts 161°
2026-05-05 18:32 42.79854 10.01751 38968 ft 445 kts 161°
2026-05-05 18:32 42.74350 10.05498 38964 ft 445 kts 161°
2026-05-05 18:33 42.68812 10.09261 38968 ft 445 kts 161°
2026-05-05 18:33 42.63268 10.13019 38969 ft 445 kts 161°
2026-05-05 18:34 42.57739 10.16760 38969 ft 444 kts 161°
2026-05-05 18:34 42.52214 10.20492 38948 ft 443 kts 161°
2026-05-05 18:35 42.46706 10.24204 38964 ft 442 kts 161°
2026-05-05 18:35 42.41200 10.27907 38971 ft 441 kts 161°
2026-05-05 18:36 42.35738 10.31573 38972 ft 441 kts 161°
2026-05-05 18:36 42.30246 10.35252 38967 ft 440 kts 161°
2026-05-05 18:37 42.24754 10.38924 38973 ft 440 kts 161°
2026-05-05 18:37 42.19264 10.42587 38978 ft 441 kts 161°
2026-05-05 18:38 42.13764 10.46250 38979 ft 441 kts 161°
2026-05-05 18:38 42.08261 10.49908 38977 ft 441 kts 161°
2026-05-05 18:39 42.02754 10.53562 38975 ft 441 kts 161°
2026-05-05 18:39 41.97248 10.57208 38974 ft 442 kts 161°
2026-05-05 18:40 41.91730 10.60854 38984 ft 442 kts 161°
2026-05-05 18:40 41.86250 10.64469 38982 ft 442 kts 161°
2026-05-05 18:41 41.80715 10.68112 38985 ft 443 kts 161°
2026-05-05 18:41 41.75168 10.71756 38987 ft 444 kts 161°
2026-05-05 18:42 41.69611 10.75400 38992 ft 445 kts 161°
2026-05-05 18:42 41.64044 10.79044 38986 ft 445 kts 161°
2026-05-05 18:43 41.58475 10.82682 38996 ft 446 kts 161°
2026-05-05 18:43 41.52897 10.86318 38995 ft 446 kts 161°
2026-05-05 18:44 41.47309 10.89955 38997 ft 446 kts 161°
2026-05-05 18:44 41.41724 10.93583 38992 ft 446 kts 160°
2026-05-05 18:45 41.36172 10.97182 38998 ft 446 kts 160°
2026-05-05 18:45 41.30584 11.00797 38997 ft 447 kts 160°
2026-05-05 18:46 41.24995 11.04406 39004 ft 447 kts 160°
2026-05-05 18:46 41.19407 11.08008 39001 ft 446 kts 160°
2026-05-05 18:47 41.13820 11.11602 39005 ft 446 kts 160°
2026-05-05 18:47 41.08232 11.15190 39005 ft 446 kts 160°
2026-05-05 18:48 41.02648 11.18769 39005 ft 446 kts 160°
2026-05-05 18:48 40.97064 11.22340 39001 ft 445 kts 160°
2026-05-05 18:49 40.91525 11.25877 39005 ft 445 kts 160°
2026-05-05 18:49 40.85943 11.29433 39005 ft 445 kts 160°
2026-05-05 18:50 40.80363 11.32982 39006 ft 445 kts 160°
2026-05-05 18:50 40.74784 11.36524 39010 ft 445 kts 160°
2026-05-05 18:51 40.69209 11.40057 39015 ft 445 kts 160°
2026-05-05 18:51 40.63630 11.43586 39020 ft 445 kts 160°
2026-05-05 18:52 40.58083 11.47088 39020 ft 445 kts 160°
2026-05-05 18:52 40.52500 11.50606 39008 ft 445 kts 160°
2026-05-05 18:53 40.46912 11.54121 39018 ft 445 kts 160°
2026-05-05 18:53 40.41333 11.57623 39022 ft 445 kts 160°
2026-05-05 18:54 40.36682 11.60538 39028 ft 445 kts 160°
2026-05-05 18:54 40.31093 11.64036 39008 ft 445 kts 160°
2026-05-05 18:55 40.25505 11.67526 39022 ft 444 kts 160°
2026-05-05 18:55 40.19934 11.71000 39020 ft 443 kts 160°
2026-05-05 18:56 40.14373 11.74461 39025 ft 442 kts 160°
2026-05-05 18:56 40.08864 11.77884 39031 ft 441 kts 160°
2026-05-05 18:57 40.03315 11.81255 39030 ft 439 kts 161°
2026-05-05 18:57 39.97679 11.84369 38583 ft 444 kts 162°
2026-05-05 18:58 39.94831 11.85914 38049 ft 442 kts 162°
2026-05-05 18:58 39.92006 11.87456 37518 ft 440 kts 162°
2026-05-05 18:58 39.89190 11.89000 36960 ft 438 kts 162°
2026-05-05 18:58 39.86386 11.90543 36425 ft 438 kts 162°
2026-05-05 18:59 39.83583 11.92090 35873 ft 437 kts 162°
2026-05-05 18:59 39.80782 11.93636 35291 ft 438 kts 162°
2026-05-05 18:59 39.77996 11.95177 35053 ft 430 kts 162°
2026-05-05 18:59 39.75276 11.96683 35035 ft 420 kts 162°
2026-05-05 19:00 39.72631 11.98147 35019 ft 407 kts 162°
2026-05-05 19:00 39.70063 11.99567 34822 ft 399 kts 162°
2026-05-05 19:00 39.67507 12.00969 33941 ft 411 kts 162°
2026-05-05 19:00 39.64817 12.02435 32693 ft 428 kts 162°
2026-05-05 19:01 39.62012 12.03964 31479 ft 444 kts 162°
2026-05-05 19:01 39.59149 12.05532 30887 ft 445 kts 162°
2026-05-05 19:01 39.56299 12.07100 30343 ft 444 kts 162°
2026-05-05 19:01 39.53465 12.08660 29848 ft 441 kts 162°
2026-05-05 19:02 39.50651 12.10207 29314 ft 437 kts 162°
2026-05-05 19:02 39.47868 12.11734 28839 ft 433 kts 162°
2026-05-05 19:02 39.45107 12.13245 28353 ft 429 kts 162°
2026-05-05 19:02 39.42368 12.14742 27880 ft 425 kts 162°
2026-05-05 19:03 39.39658 12.16222 27406 ft 421 kts 162°
2026-05-05 19:03 39.36974 12.17684 26937 ft 417 kts 162°
2026-05-05 19:03 39.34309 12.19136 26485 ft 414 kts 162°
2026-05-05 19:03 39.31670 12.20572 26029 ft 411 kts 162°
2026-05-05 19:04 39.29043 12.22000 25585 ft 408 kts 162°
2026-05-05 19:04 39.26472 12.23396 25134 ft 405 kts 163°
2026-05-05 19:04 39.23880 12.24803 24688 ft 403 kts 163°
2026-05-05 19:04 39.21307 12.26199 24244 ft 400 kts 163°
2026-05-05 19:05 39.18743 12.27588 23783 ft 399 kts 163°
2026-05-05 19:05 39.16190 12.28971 23283 ft 397 kts 163°
2026-05-05 19:05 39.13651 12.30344 22773 ft 394 kts 163°
2026-05-05 19:05 39.11133 12.31706 22315 ft 391 kts 162°
2026-05-05 19:06 39.08708 12.33279 22055 ft 389 kts 152°
2026-05-05 19:06 39.06571 12.35422 21683 ft 390 kts 142°
2026-05-05 19:06 39.04726 12.37991 21266 ft 392 kts 133°
2026-05-05 19:06 39.03030 12.40722 20843 ft 390 kts 132°
2026-05-05 19:07 39.01360 12.43463 20409 ft 388 kts 131°
2026-05-05 19:07 38.99702 12.46188 19988 ft 386 kts 131°
2026-05-05 19:07 38.98071 12.48856 19561 ft 384 kts 131°
2026-05-05 19:07 38.96395 12.51582 19147 ft 382 kts 131°
2026-05-05 19:08 38.94768 12.54214 18739 ft 380 kts 131°
2026-05-05 19:08 38.93120 12.56871 18307 ft 379 kts 131°
2026-05-05 19:08 38.91477 12.59513 17819 ft 378 kts 131°
2026-05-05 19:08 38.89843 12.62135 17363 ft 375 kts 131°
2026-05-05 19:09 38.88221 12.64738 16930 ft 372 kts 131°
2026-05-05 19:09 38.86608 12.67321 16515 ft 370 kts 132°
2026-05-05 19:09 38.85002 12.69892 16094 ft 367 kts 132°
2026-05-05 19:09 38.83412 12.72435 15684 ft 365 kts 132°
2026-05-05 19:10 38.81829 12.74964 15277 ft 363 kts 132°
2026-05-05 19:10 38.80252 12.77482 14861 ft 361 kts 132°
2026-05-05 19:10 38.78684 12.79983 14455 ft 359 kts 131°
2026-05-05 19:10 38.77121 12.82475 14034 ft 358 kts 131°
2026-05-05 19:11 38.75559 12.84963 13589 ft 358 kts 131°
2026-05-05 19:11 38.74003 12.87439 13142 ft 356 kts 131°
2026-05-05 19:11 38.72455 12.89901 12711 ft 354 kts 131°
2026-05-05 19:11 38.70914 12.92350 12275 ft 352 kts 131°
2026-05-05 19:12 38.69384 12.94780 11878 ft 350 kts 131°
2026-05-05 19:12 38.67861 12.97197 11475 ft 347 kts 131°
2026-05-05 19:12 38.66349 12.99595 11073 ft 345 kts 131°
2026-05-05 19:12 38.64863 13.01950 10680 ft 343 kts 131°
2026-05-05 19:13 38.63378 13.04303 10493 ft 335 kts 131°
2026-05-05 19:13 38.61938 13.06584 10330 ft 325 kts 131°
2026-05-05 19:13 38.60533 13.08807 10184 ft 316 kts 131°
2026-05-05 19:13 38.59165 13.10970 10049 ft 308 kts 131°
2026-05-05 19:14 38.57830 13.13077 9784 ft 305 kts 131°
2026-05-05 19:14 38.56502 13.15172 9470 ft 303 kts 131°
2026-05-05 19:14 38.55178 13.17257 9157 ft 301 kts 131°
2026-05-05 19:14 38.53866 13.19324 8867 ft 299 kts 131°
2026-05-05 19:15 38.52561 13.21379 8564 ft 297 kts 131°
2026-05-05 19:15 38.51265 13.23419 8269 ft 295 kts 131°
2026-05-05 19:15 38.49976 13.25448 7976 ft 293 kts 131°
2026-05-05 19:15 38.48698 13.27457 7681 ft 291 kts 131°
2026-05-05 19:16 38.47426 13.29456 7449 ft 287 kts 131°
2026-05-05 19:16 38.46183 13.31409 7328 ft 279 kts 131°
2026-05-05 19:16 38.44989 13.33284 7204 ft 272 kts 131°
2026-05-05 19:16 38.43797 13.35155 7089 ft 265 kts 132°
2026-05-05 19:17 38.42664 13.36931 6982 ft 258 kts 131°
2026-05-05 19:17 38.41548 13.38678 6880 ft 251 kts 131°
2026-05-05 19:17 38.40460 13.40382 6728 ft 246 kts 132°
2026-05-05 19:17 38.39283 13.41937 6493 ft 242 kts 151°
2026-05-05 19:18 38.37742 13.42711 6273 ft 237 kts 165°
2026-05-05 19:18 38.36166 13.43349 6007 ft 237 kts 164°
2026-05-05 19:18 38.34603 13.43992 5780 ft 234 kts 163°
2026-05-05 19:18 38.33077 13.44624 5523 ft 228 kts 163°
2026-05-05 19:19 38.31560 13.45122 5250 ft 222 kts 179°
2026-05-05 19:19 38.30119 13.44633 5022 ft 214 kts 212°
2026-05-05 19:19 38.29069 13.43331 4785 ft 211 kts 236°
2026-05-05 19:19 38.28448 13.41687 4545 ft 207 kts 245°
2026-05-05 19:20 38.27898 13.40006 4281 ft 204 kts 245°
2026-05-05 19:20 38.27353 13.38350 4028 ft 201 kts 244°
2026-05-05 19:20 38.26820 13.36737 3870 ft 193 kts 244°
2026-05-05 19:20 38.26308 13.35180 3819 ft 189 kts 244°
2026-05-05 19:21 38.25792 13.33622 3599 ft 192 kts 244°
2026-05-05 19:21 38.25272 13.32067 3367 ft 191 kts 244°
2026-05-05 19:21 38.24751 13.30517 3116 ft 190 kts 244°
2026-05-05 19:21 38.24235 13.28978 2869 ft 189 kts 243°
2026-05-05 19:22 38.23719 13.27440 2630 ft 189 kts 244°
2026-05-05 19:22 38.23202 13.25899 2376 ft 189 kts 244°
2026-05-05 19:22 38.22687 13.24363 2123 ft 188 kts 244°
2026-05-05 19:22 38.22177 13.22839 1867 ft 185 kts 244°
2026-05-05 19:23 38.21687 13.21373 1650 ft 175 kts 244°
2026-05-05 19:23 38.21229 13.20004 1416 ft 161 kts 244°
2026-05-05 19:23 38.20805 13.18737 1206 ft 153 kts 244°
2026-05-05 19:23 38.20388 13.17494 999 ft 152 kts 245°
2026-05-05 19:24 38.19978 13.16274 787 ft 149 kts 245°
2026-05-05 19:24 38.19589 13.15069 602 ft 145 kts 247°
2026-05-05 19:24 38.19210 13.13890 415 ft 142 kts 247°
2026-05-05 19:24 38.18839 13.12760 225 ft 141 kts 245°
2026-05-05 19:25 38.18430 13.11605 61 ft 146 kts 244°
2026-05-05 19:25 38.18071 13.10553 49 ft 103 kts 247°
2026-05-05 19:25 38.17873 13.09963 52 ft 48 kts 247°
2026-05-05 19:25 38.17747 13.09590 52 ft 44 kts 247°
2026-05-05 19:26 38.17645 13.09285 52 ft 28 kts 246°
2026-05-05 19:26 38.17606 13.09144 52 ft 11 kts 283°
2026-05-05 19:26 38.17658 13.09143 52 ft 9 kts 25°
2026-05-05 19:26 38.17730 13.09186 52 ft 14 kts 24°
2026-05-05 19:27 38.17832 13.09254 49 ft 19 kts 44°
2026-05-05 19:27 38.17893 13.09404 51 ft 19 kts 66°
2026-05-05 19:27 38.17944 13.09559 52 ft 20 kts 67°
2026-05-05 19:27 38.18002 13.09733 52 ft 23 kts 67°
2026-05-05 19:28 38.18062 13.09915 49 ft 22 kts 67°
2026-05-05 19:28 38.18122 13.10093 49 ft 21 kts 66°
2026-05-05 19:28 38.18178 13.10259 52 ft 18 kts 67°
2026-05-05 19:28 38.18226 13.10361 52 ft 12 kts 27°
2026-05-05 19:29 38.18299 13.10392 51 ft 12 kts 58°
2026-05-05 19:29 38.18340 13.10474 52 ft 10 kts 35°
2026-05-05 19:29 38.18403 13.10507 50 ft 10 kts 20°
2026-05-05 19:29 38.18457 13.10573 52 ft 12 kts 66°
2026-05-05 19:30 38.18488 13.10665 51 ft 9 kts 67°
2026-05-05 19:30 38.18518 13.10692 52 ft 5 kts 348°
2026-05-05 19:30 38.18553 13.10673 49 ft 5 kts 337°
2026-05-05 19:30 38.18566 13.10666 52 ft 0 kts 338°